Time,TemperatureF,DewpointF,PressureIn,WindDirection,WindDirectionDegrees,WindSpeedMPH,WindSpeedGustMPH,Humidity,HourlyPrecipIn,Conditions,Clouds,dailyrainin,SolarRadiationWatts/m^2,SoftwareType,DateUTC
2013-01-08 00:22:00,19.0,17.0,-100.00,East,89,1.0,2.0,90,0.00,,,0.00,0.000000,,2013-01-08 09:22:00,
2013-01-08 00:32:00,19.0,17.0,-100.00,East,89,1.0,2.0,90,0.00,,,0.00,0.000000,,2013-01-08 09:32:00,
2013-01-08 00:42:00,19.0,17.0,-100.00,East,89,1.0,2.0,90,0.00,,,0.00,0.000000,,2013-01-08 09:42:00,
2013-01-08 00:52:00,19.0,17.0,-100.00,East,89,1.0,2.0,90,0.00,,,0.00,0.000000,,2013-01-08 09:52:00,
2013-01-08 01:22:00,19.0,17.0,-100.00,ESE,112,0.0,0.0,91,0.00,,,0.00,0.000000,,2013-01-08 10:22:00,
2013-01-08 01:32:00,19.0,17.0,-100.00,ESE,112,0.0,0.0,91,0.00,,,0.00,0.000000,,2013-01-08 10:32:00,
2013-01-08 01:42:00,19.0,17.0,-100.00,ESE,112,0.0,0.0,91,0.00,,,0.00,0.000000,,2013-01-08 10:42:00,
2013-01-08 01:52:00,19.0,17.0,-100.00,ESE,112,0.0,0.0,91,0.00,,,0.00,0.000000,,2013-01-08 10:52:00,
2013-01-08 02:22:00,21.0,19.0,-100.00,ESE,122,1.0,3.0,92,0.00,,,0.00,0.000000,,2013-01-08 11:22:00,
2013-01-08 02:32:00,21.0,19.0,-100.00,ESE,122,1.0,3.0,92,0.00,,,0.00,0.000000,,2013-01-08 11:32:00,
2013-01-08 02:42:00,21.0,19.0,-100.00,ESE,122,1.0,3.0,92,0.00,,,0.00,0.000000,,2013-01-08 11:42:00,
2013-01-08 02:52:00,21.0,19.0,-100.00,ESE,122,1.0,3.0,92,0.00,,,0.00,0.000000,,2013-01-08 11:52:00,
2013-01-08 03:22:00,22.0,19.0,-100.00,East,82,1.0,4.0,89,0.00,,,0.00,0.000000,,2013-01-08 12:22:00,
2013-01-08 03:32:00,22.0,19.0,-100.00,East,82,1.0,4.0,89,0.00,,,0.00,0.000000,,2013-01-08 12:32:00,
2013-01-08 03:42:00,22.0,19.0,-100.00,East,82,1.0,4.0,89,0.00,,,0.00,0.000000,,2013-01-08 12:42:00,
2013-01-08 03:52:00,22.0,19.0,-100.00,East,82,1.0,4.0,89,0.00,,,0.00,0.000000,,2013-01-08 12:52:00,
2013-01-08 04:22:00,22.0,20.0,-100.00,NE,36,0.0,5.0,90,0.00,,,-99.99,0.000000,,2013-01-08 13:22:00,
2013-01-08 04:32:00,22.0,20.0,-100.00,NE,36,0.0,5.0,90,0.00,,,-99.99,0.000000,,2013-01-08 13:32:00,
2013-01-08 04:42:00,22.0,20.0,-100.00,NE,36,0.0,5.0,90,0.00,,,-99.99,0.000000,,2013-01-08 13:42:00,
2013-01-08 04:52:00,22.0,20.0,-100.00,NE,36,0.0,5.0,90,0.00,,,-99.99,0.000000,,2013-01-08 13:52:00,
2013-01-08 05:23:00,22.0,20.0,-100.00,NNW,334,1.0,3.0,91,0.00,,,0.00,0.000000,,2013-01-08 14:23:00,
2013-01-08 05:33:00,22.0,20.0,-100.00,NNW,334,1.0,3.0,91,0.00,,,0.00,0.000000,,2013-01-08 14:33:00,
2013-01-08 05:42:00,22.0,20.0,-100.00,NNW,334,1.0,3.0,91,0.00,,,0.00,0.000000,,2013-01-08 14:42:00,
2013-01-08 05:52:00,22.0,20.0,-100.00,NNW,334,1.0,3.0,91,0.00,,,0.00,0.000000,,2013-01-08 14:52:00,
2013-01-08 06:22:00,22.0,20.0,-100.00,NNE,23,1.0,3.0,90,0.00,,,0.00,0.000000,,2013-01-08 15:22:00,
2013-01-08 06:33:00,22.0,20.0,-100.00,NNE,23,1.0,3.0,90,0.00,,,0.00,0.000000,,2013-01-08 15:33:00,
2013-01-08 06:42:00,22.0,20.0,-100.00,NNE,23,1.0,3.0,90,0.00,,,0.00,0.000000,,2013-01-08 15:42:00,
2013-01-08 06:52:00,22.0,20.0,-100.00,NNE,23,1.0,3.0,90,0.00,,,0.00,0.000000,,2013-01-08 15:52:00,
2013-01-08 07:22:00,22.0,20.0,-100.00,WNW,302,1.0,2.0,90,0.00,,,0.00,0.000000,,2013-01-08 16:22:00,
2013-01-08 07:33:00,22.0,20.0,-100.00,WNW,302,1.0,2.0,90,0.00,,,0.00,0.000000,,2013-01-08 16:33:00,
2013-01-08 07:42:00,22.0,20.0,-100.00,WNW,302,1.0,2.0,90,0.00,,,0.00,0.000000,,2013-01-08 16:42:00,
2013-01-08 07:52:00,22.0,20.0,-100.00,WNW,302,1.0,2.0,90,0.00,,,0.00,0.000000,,2013-01-08 16:52:00,
2013-01-08 08:23:00,22.0,20.0,-100.00,WSW,258,1.0,3.0,91,0.00,,,0.00,0.000000,,2013-01-08 17:23:00,
2013-01-08 08:33:00,22.0,20.0,-100.00,WSW,258,1.0,3.0,91,0.00,,,0.00,0.000000,,2013-01-08 17:33:00,
2013-01-08 08:42:00,22.0,20.0,-100.00,WSW,258,1.0,3.0,91,0.00,,,0.00,0.000000,,2013-01-08 17:42:00,
2013-01-08 08:53:00,22.0,20.0,-100.00,WSW,258,1.0,3.0,91,0.00,,,0.00,0.000000,,2013-01-08 17:53:00,
2013-01-08 09:23:00,22.0,20.0,-100.00,South,188,0.0,2.0,91,0.00,,,0.00,0.000000,,2013-01-08 18:23:00,
2013-01-08 09:33:00,22.0,20.0,-100.00,South,188,0.0,2.0,91,0.00,,,0.00,0.000000,,2013-01-08 18:33:00,
2013-01-08 09:43:00,22.0,20.0,-100.00,South,188,0.0,2.0,91,0.00,,,0.00,0.000000,,2013-01-08 18:43:00,
2013-01-08 09:52:00,22.0,20.0,-100.00,South,188,0.0,2.0,91,0.00,,,0.00,0.000000,,2013-01-08 18:52:00,
2013-01-08 10:22:00,22.0,20.0,-100.00,SSE,166,1.0,2.0,91,0.00,,,0.00,0.000000,,2013-01-08 19:22:00,
2013-01-08 10:32:00,22.0,20.0,-100.00,SSE,166,1.0,2.0,91,0.00,,,0.00,0.000000,,2013-01-08 19:32:00,
2013-01-08 10:42:00,22.0,20.0,-100.00,SSE,166,1.0,2.0,91,0.00,,,0.00,0.000000,,2013-01-08 19:42:00,
2013-01-08 10:52:00,22.0,20.0,-100.00,SSE,166,1.0,2.0,91,0.00,,,0.00,0.000000,,2013-01-08 19:52:00,
2013-01-08 11:22:00,23.0,21.0,-100.00,East,82,0.0,1.0,91,0.00,,,0.00,9.000000,,2013-01-08 20:22:00,
2013-01-08 11:33:00,23.0,21.0,-100.00,East,82,0.0,1.0,91,0.00,,,0.00,9.000000,,2013-01-08 20:33:00,
2013-01-08 11:43:00,23.0,21.0,-100.00,East,82,0.0,1.0,91,0.00,,,0.00,9.000000,,2013-01-08 20:43:00,
2013-01-08 11:53:00,23.0,21.0,-100.00,East,82,0.0,1.0,91,0.00,,,0.00,9.000000,,2013-01-08 20:53:00,
2013-01-08 12:22:00,24.0,22.0,-100.00,WSW,256,0.0,2.0,91,0.00,,,0.00,15.000000,,2013-01-08 21:22:00,
2013-01-08 12:33:00,24.0,22.0,-100.00,WSW,256,0.0,2.0,91,0.00,,,0.00,15.000000,,2013-01-08 21:33:00,
2013-01-08 12:42:00,24.0,22.0,-100.00,WSW,256,0.0,2.0,91,0.00,,,0.00,15.000000,,2013-01-08 21:42:00,
2013-01-08 12:52:00,24.0,22.0,-100.00,WSW,256,0.0,2.0,91,0.00,,,0.00,15.000000,,2013-01-08 21:52:00,
2013-01-08 13:22:00,25.0,22.0,-100.00,East,82,1.0,2.0,90,0.00,,,-99.99,17.000000,,2013-01-08 22:22:00,
2013-01-08 13:32:00,25.0,22.0,-100.00,East,82,1.0,2.0,90,0.00,,,-99.99,17.000000,,2013-01-08 22:32:00,
2013-01-08 13:42:00,25.0,22.0,-100.00,East,82,1.0,2.0,90,0.00,,,-99.99,17.000000,,2013-01-08 22:42:00,
2013-01-08 13:52:00,25.0,22.0,-100.00,East,82,1.0,2.0,90,0.00,,,-99.99,17.000000,,2013-01-08 22:52:00,
2013-01-08 14:22:00,25.0,22.0,-100.00,West,259,0.0,0.0,90,0.00,,,0.00,24.000000,,2013-01-08 23:22:00,
2013-01-08 14:32:00,25.0,22.0,-100.00,West,259,0.0,0.0,90,0.00,,,0.00,24.000000,,2013-01-08 23:32:00,
2013-01-08 14:42:00,25.0,22.0,-100.00,West,259,0.0,0.0,90,0.00,,,0.00,24.000000,,2013-01-08 23:42:00,
2013-01-08 14:52:00,25.0,22.0,-100.00,West,259,0.0,0.0,90,0.00,,,0.00,24.000000,,2013-01-08 23:52:00,
2013-01-08 15:22:00,23.0,20.0,-100.00,SSW,192,1.0,3.0,88,0.00,,,0.00,16.000000,,2013-01-09 00:22:00,
2013-01-08 15:32:00,23.0,20.0,-100.00,SSW,192,1.0,3.0,88,0.00,,,0.00,16.000000,,2013-01-09 00:32:00,
2013-01-08 15:42:00,23.0,20.0,-100.00,SSW,192,1.0,3.0,88,0.00,,,0.00,16.000000,,2013-01-09 00:42:00,
2013-01-08 15:52:00,23.0,20.0,-100.00,SSW,192,1.0,3.0,88,0.00,,,0.00,16.000000,,2013-01-09 00:52:00,
2013-01-08 16:22:00,19.0,17.0,-100.00,ESE,104,1.0,2.0,90,0.00,,,0.00,8.000000,,2013-01-09 01:22:00,
2013-01-08 16:32:00,19.0,17.0,-100.00,ESE,104,1.0,2.0,90,0.00,,,0.00,8.000000,,2013-01-09 01:32:00,
2013-01-08 16:42:00,19.0,17.0,-100.00,ESE,104,1.0,2.0,90,0.00,,,0.00,8.000000,,2013-01-09 01:42:00,
2013-01-08 16:52:00,19.0,17.0,-100.00,ESE,104,1.0,2.0,90,0.00,,,0.00,8.000000,,2013-01-09 01:52:00,
2013-01-08 17:22:00,17.0,15.0,-100.00,East,85,1.0,2.0,90,0.00,,,-99.99,2.000000,,2013-01-09 02:22:00,
2013-01-08 17:32:00,17.0,15.0,-100.00,East,85,1.0,2.0,90,0.00,,,-99.99,2.000000,,2013-01-09 02:32:00,
2013-01-08 17:42:00,17.0,15.0,-100.00,East,85,1.0,2.0,90,0.00,,,-99.99,2.000000,,2013-01-09 02:42:00,
2013-01-08 17:52:00,17.0,15.0,-100.00,East,85,1.0,2.0,90,0.00,,,-99.99,2.000000,,2013-01-09 02:52:00,
2013-01-08 18:22:00,15.0,13.0,-100.00,East,98,1.0,2.0,91,0.00,,,0.00,0.000000,,2013-01-09 03:22:00,
2013-01-08 18:33:00,15.0,13.0,-100.00,East,98,1.0,2.0,91,0.00,,,0.00,0.000000,,2013-01-09 03:33:00,
2013-01-08 18:42:00,15.0,13.0,-100.00,East,98,1.0,2.0,91,0.00,,,0.00,0.000000,,2013-01-09 03:42:00,
2013-01-08 18:52:00,15.0,13.0,-100.00,East,98,1.0,2.0,91,0.00,,,0.00,0.000000,,2013-01-09 03:52:00,
2013-01-08 19:22:00,13.0,10.0,-100.00,ESE,106,1.0,2.0,89,0.00,,,0.00,0.000000,,2013-01-09 04:22:00,
2013-01-08 19:42:00,13.0,10.0,-100.00,ESE,106,1.0,2.0,89,0.00,,,0.00,0.000000,,2013-01-09 04:42:00,
2013-01-08 19:52:00,13.0,10.0,-100.00,ESE,106,1.0,2.0,89,0.00,,,0.00,0.000000,,2013-01-09 04:52:00,
2013-01-08 20:22:00,12.0,9.0,-100.00,East,86,1.0,2.0,88,0.00,,,-99.99,0.000000,,2013-01-09 05:22:00,
2013-01-08 21:22:00,11.0,8.0,-100.00,East,91,2.0,2.0,87,0.00,,,0.00,0.000000,,2013-01-09 06:22:00,
2013-01-08 21:32:00,11.0,8.0,-100.00,East,91,2.0,2.0,87,0.00,,,0.00,0.000000,,2013-01-09 06:32:00,
2013-01-08 21:42:00,11.0,8.0,-100.00,East,91,2.0,2.0,87,0.00,,,0.00,0.000000,,2013-01-09 06:42:00,
2013-01-08 21:52:00,11.0,8.0,-100.00,East,91,2.0,2.0,87,0.00,,,0.00,0.000000,,2013-01-09 06:52:00,
2013-01-08 22:22:00,10.0,7.0,-100.00,East,96,0.0,2.0,86,0.00,,,0.00,0.000000,,2013-01-09 07:22:00,
2013-01-08 22:32:00,10.0,7.0,-100.00,East,96,0.0,2.0,86,0.00,,,0.00,0.000000,,2013-01-09 07:32:00,
2013-01-08 22:42:00,10.0,7.0,-100.00,East,96,0.0,2.0,86,0.00,,,0.00,0.000000,,2013-01-09 07:42:00,
2013-01-08 22:52:00,10.0,7.0,-100.00,East,96,0.0,2.0,86,0.00,,,0.00,0.000000,,2013-01-09 07:52:00,
2013-01-08 23:22:00,9.0,5.0,-100.00,East,90,2.0,3.0,85,0.00,,,0.00,0.000000,,2013-01-09 08:22:00,
2013-01-08 23:32:00,9.0,5.0,-100.00,East,90,2.0,3.0,85,0.00,,,0.00,0.000000,,2013-01-09 08:32:00,
2013-01-08 23:42:00,9.0,5.0,-100.00,East,90,2.0,3.0,85,0.00,,,0.00,0.000000,,2013-01-09 08:42:00,
2013-01-08 23:52:00,9.0,5.0,-100.00,East,90,2.0,3.0,85,0.00,,,0.00,0.000000,,2013-01-09 08:52:00,